星链-33807 (STARLINK-33807)

导读

STARLINK-33807是美国星链星座的卫星,星链项目旨在构建全球卫星互联网系统,为全球提供高速宽带网络服务。该卫星于2025年4月7日发射升空,属于SpaceX公司大规模星座组网的一员,入轨后将参与星座部署,扩充星座容量,进一步提升全球网络覆盖范围与服务能力,延续星链低轨卫星通信的布局。

基本信息
目录编号:
63518
目录名称:
STARLINK-33807
国际标识:
2025-071AB
轨道中心:
EARTH
卫星名称:
星链-33807
卫星全名:
星链-33807 (STARLINK-33807)
卫星状态:
在轨 (已飞行515 天)
发射日期:
2025-04-07 UTC
国别 :
美国 (US)
星等 :
--
轨道信息
数据来源 国际轨道数据
星历时间: 2026-09-04T04:00:02+0800
8小时前
查看轨道信息
半长轴: 6840.948km
偏心率: 0.000115
轨道倾角: 53.160°
近地点辐角 75.635°
升交点赤经 27.814°
平近点角 132.037°
近地点: 462.024km
远地点: 463.598km
周期: 93.850分钟
每日圈数: 15.343638
详细信息
固有亮度:
5
最大亮度:
2.5
卫星平台:
Starlink V1.0
覆盖范围:
全球
运营商:
太空探索技术公司
运营商所在国:
美国
制造商(研发单位):
太空探索技术公司
制造商所在国:
美国
使用方式:
暂无
卫星简介
Starlink 计划是 SpaceX 推出的全球卫星互联网项目,通过发射低轨道卫星,为全球尤其是偏远地区提供高速、低延迟的互联网服务。自 2019 年起,Starlink 已部署数千颗卫星,旨在缩小全球数字鸿沟,推动互联网普及。该项目还为军事、航空等行业提供通信支持,带来广泛经济效益。
2D轨道图
3D轨道图
轨道高度分析图
轨道倾角分析图
轨道综合分析图
查看轨道综合分析图
交会数据列表
事件ID 空间交会对象 最接近时刻(TCA) 交会距离 交会风险概率(CRP) 交会风险指数(CRI) 操作
CDM_260905-151106-351806-419021
2026-09-05T
15:11:53+0000
0.581 km
远距离
6.817063E-5 中风险 0.72
CDM_260905-080906-351806-419021
2026-09-05T
08:09:49+0000
0.956 km
远距离
1.39515E-5 中风险 0.58
CDM_260904-091905-420906-351821
2026-09-04T
09:19:55+0000
2.703 km
极远距离
1.303047E-6 低风险 0.37
CDM_260905-111406-158806-351821
2026-09-05T
11:14:37+0000
2.504 km
极远距离
1.161167E-6 低风险 0.36
CDM_260904-020905-912506-351822
2026-09-04T
02:09:16+0000
2.718 km
极远距离
8.948201E-7 极低风险 0.34
CDM_260905-133806-351806-419021
2026-09-05T
13:38:06+0000
2.757 km
极远距离
7.749831E-7 极低风险 0.33
CDM_260905-094306-351806-419021
2026-09-05T
09:43:37+0000
2.957 km
极远距离
7.114499E-7 极低风险 0.32